When you browse on this site, cookies collect data to enhance your experience and personalize the content and advertising you see.
Visit our Privacy Policy to learn more. By continuing to use the site, you agree to this use of cookies and data.
  • In Belgien
  • Länderverzeichnis
  • Für 7 Tage
  • Wassertemperatur
  • Satellitenkarten
  • Wetterkarte
  • Widgets
  • user-avatar
    Anmelden

    Stündliche Wetter Zhihino

    Heute, 23 Mai, Donnerstag

    Zeit Temperatur Niederschläge Wind Luftdruck Luftfeuchtigkeit
    00:00 +12°C° 0 mm 1 m/S 740 mmHg 97%
    01:00 +11°C° 0 mm 1 m/S 740 mmHg 97%
    02:00 +10°C° 0 mm 0 m/S 739 mmHg 97%
    03:00 +11°C° 0.1 mm 0 m/S 739 mmHg 96%
    04:00 +12°C° 0.1 mm 0 m/S 738 mmHg 95%
    05:00 +12°C° 0.1 mm 0 m/S 738 mmHg 95%
    06:00 +15°C° 0 mm 1 m/S 738 mmHg 91%
    07:00 +16°C° 0 mm 1 m/S 738 mmHg 87%
    08:00 +18°C° 0 mm 1 m/S 738 mmHg 82%
    09:00 +18°C° 0.8 mm 2 m/S 738 mmHg 79%
    10:00 +19°C° 0.8 mm 2 m/S 738 mmHg 76%
    11:00 +20°C° 0.8 mm 3 m/S 738 mmHg 74%
    12:00 +19°C° 0.8 mm 4 m/S 738 mmHg 76%
    13:00 +17°C° 0.8 mm 5 m/S 739 mmHg 79%
    14:00 +16°C° 0.8 mm 5 m/S 739 mmHg 82%
    15:00 +15°C° 0 mm 5 m/S 739 mmHg 80%
    16:00 +13°C° 0 mm 5 m/S 740 mmHg 78%
    17:00 +12°C° 0 mm 5 m/S 740 mmHg 76%
    18:00 +11°C° 0 mm 4 m/S 741 mmHg 78%
    19:00 +8°C° 0 mm 4 m/S 741 mmHg 80%
    20:00 +8°C° 0 mm 3 m/S 741 mmHg 82%
    21:00 +7°C° 0 mm 3 m/S 742 mmHg 84%
    22:00 +6°C° 0 mm 2 m/S 742 mmHg 87%
    23:00 +6°C° 0 mm 2 m/S 743 mmHg 89%

    Morgen, 24 Mai, Freitag

    Zeit Temperatur Niederschläge Wind Luftdruck Luftfeuchtigkeit
    00:00 +5°C° 0 mm 2 m/S 743 mmHg 86%
    01:00 +5°C° 0 mm 2 m/S 744 mmHg 83%
    02:00 +4°C° 0 mm 2 m/S 744 mmHg 80%
    03:00 +3°C° 0 mm 3 m/S 745 mmHg 76%
    04:00 +4°C° 0 mm 3 m/S 745 mmHg 71%
    05:00 +4°C° 0 mm 3 m/S 745 mmHg 67%
    06:00 +7°C° 0 mm 3 m/S 745 mmHg 62%
    07:00 +8°C° 0 mm 3 m/S 746 mmHg 58%
    08:00 +10°C° 0 mm 3 m/S 746 mmHg 53%
    09:00 +11°C° 0 mm 3 m/S 746 mmHg 50%
    10:00 +12°C° 0 mm 3 m/S 746 mmHg 48%
    11:00 +13°C° 0 mm 3 m/S 746 mmHg 45%
    12:00 +13°C° 0 mm 3 m/S 746 mmHg 45%
    13:00 +14°C° 0 mm 3 m/S 746 mmHg 44%
    14:00 +14°C° 0 mm 3 m/S 745 mmHg 44%
    15:00 +14°C° 0 mm 3 m/S 745 mmHg 46%
    16:00 +14°C° 0 mm 3 m/S 745 mmHg 48%
    17:00 +14°C° 0 mm 3 m/S 745 mmHg 51%
    18:00 +12°C° 0 mm 3 m/S 745 mmHg 57%
    19:00 +11°C° 0 mm 3 m/S 745 mmHg 64%
    20:00 +9°C° 0 mm 3 m/S 745 mmHg 70%
    21:00 +9°C° 0 mm 3 m/S 745 mmHg 69%
    22:00 +8°C° 0 mm 3 m/S 745 mmHg 69%
    23:00 +8°C° 0 mm 3 m/S 745 mmHg 68%

    übermorgen, 25 Mai, Samstag

    Zeit Temperatur Niederschläge Wind Luftdruck Luftfeuchtigkeit
    00:00 +7°C° 0 mm 4 m/S 744 mmHg 68%
    01:00 +6°C° 0 mm 4 m/S 744 mmHg 69%
    02:00 +6°C° 0 mm 4 m/S 744 mmHg 69%
    03:00 +7°C° 0 mm 4 m/S 744 mmHg 71%
    04:00 +7°C° 0 mm 4 m/S 743 mmHg 72%
    05:00 +8°C° 0 mm 4 m/S 743 mmHg 73%
    06:00 +10°C° 0.1 mm 4 m/S 743 mmHg 73%
    07:00 +11°C° 0.1 mm 4 m/S 743 mmHg 73%
    08:00 +12°C° 0.1 mm 4 m/S 742 mmHg 73%
    09:00 +13°C° 0.1 mm 4 m/S 742 mmHg 72%
    10:00 +15°C° 0.1 mm 4 m/S 742 mmHg 70%
    11:00 +16°C° 0.1 mm 5 m/S 741 mmHg 69%
    12:00 +17°C° 0 mm 5 m/S 741 mmHg 67%
    13:00 +19°C° 0 mm 4 m/S 741 mmHg 65%
    14:00 +19°C° 0 mm 4 m/S 740 mmHg 64%
    15:00 +19°C° 0 mm 4 m/S 740 mmHg 69%
    16:00 +18°C° 0 mm 3 m/S 739 mmHg 74%
    17:00 +18°C° 0 mm 3 m/S 738 mmHg 79%
    18:00 +17°C° 0 mm 3 m/S 738 mmHg 82%
    19:00 +15°C° 0 mm 4 m/S 738 mmHg 85%
    20:00 +15°C° 0 mm 4 m/S 737 mmHg 88%
    21:00 +15°C° 0 mm 4 m/S 737 mmHg 90%
    22:00 +14°C° 0 mm 4 m/S 737 mmHg 92%
    23:00 +14°C° 0 mm 4 m/S 736 mmHg 94%

    26 Mai, Sonntag

    Zeit Temperatur Niederschläge Wind Luftdruck Luftfeuchtigkeit
    00:00 +14°C° 1 mm 4 m/S 736 mmHg 95%
    01:00 +14°C° 1 mm 4 m/S 736 mmHg 96%
    02:00 +14°C° 1 mm 4 m/S 735 mmHg 97%
    03:00 +13°C° 0.2 mm 3 m/S 735 mmHg 97%
    04:00 +13°C° 0.2 mm 3 m/S 735 mmHg 96%
    05:00 +14°C° 0.2 mm 2 m/S 735 mmHg 96%
    06:00 +14°C° 0 mm 3 m/S 735 mmHg 90%
    07:00 +14°C° 0 mm 3 m/S 736 mmHg 85%
    08:00 +16°C° 0 mm 3 m/S 736 mmHg 79%
    09:00 +17°C° 0 mm 4 m/S 736 mmHg 71%
    10:00 +18°C° 0 mm 4 m/S 736 mmHg 63%
    11:00 +19°C° 0 mm 4 m/S 736 mmHg 55%
    12:00 +19°C° 0 mm 4 m/S 736 mmHg 54%
    13:00 +19°C° 0 mm 4 m/S 736 mmHg 53%
    14:00 +20°C° 0 mm 4 m/S 736 mmHg 53%
    15:00 +19°C° 0 mm 3 m/S 736 mmHg 56%
    16:00 +19°C° 0 mm 3 m/S 736 mmHg 59%
    17:00 +19°C° 0 mm 2 m/S 736 mmHg 61%
    18:00 +17°C° 0 mm 2 m/S 736 mmHg 68%
    19:00 +15°C° 0 mm 1 m/S 736 mmHg 74%
    20:00 +12°C° 0 mm 0 m/S 736 mmHg 80%
    21:00 +13°C° 0 mm 1 m/S 736 mmHg 81%
    22:00 +12°C° 0 mm 1 m/S 736 mmHg 82%
    23:00 +12°C° 0 mm 2 m/S 735 mmHg 83%

    27 Mai, Montag

    Zeit Temperatur Niederschläge Wind Luftdruck Luftfeuchtigkeit
    00:00 +12°C° 0 mm 2 m/S 735 mmHg 85%
    01:00 +12°C° 0 mm 2 m/S 735 mmHg 86%
    02:00 +12°C° 0 mm 2 m/S 735 mmHg 88%
    03:00 +10°C° 0.9 mm 3 m/S 735 mmHg 90%
    04:00 +10°C° 0.9 mm 4 m/S 735 mmHg 92%
    05:00 +10°C° 0.9 mm 4 m/S 735 mmHg 93%
    06:00 +9°C° 0.3 mm 5 m/S 735 mmHg 89%
    07:00 +10°C° 0.3 mm 6 m/S 735 mmHg 85%
    08:00 +10°C° 0.3 mm 6 m/S 736 mmHg 82%
    09:00 +10°C° 0.4 mm 7 m/S 736 mmHg 79%
    10:00 +11°C° 0.4 mm 7 m/S 737 mmHg 76%
    11:00 +11°C° 0.4 mm 7 m/S 737 mmHg 73%
    12:00 +12°C° 0.3 mm 7 m/S 738 mmHg 68%
    13:00 +12°C° 0.3 mm 7 m/S 738 mmHg 62%
    14:00 +14°C° 0.3 mm 7 m/S 739 mmHg 57%
    15:00 +14°C° 0.1 mm 7 m/S 739 mmHg 61%
    16:00 +13°C° 0.1 mm 6 m/S 740 mmHg 64%
    17:00 +13°C° 0.1 mm 6 m/S 740 mmHg 67%
    18:00 +12°C° 0 mm 5 m/S 741 mmHg 71%
    19:00 +11°C° 0 mm 3 m/S 741 mmHg 75%
    20:00 +10°C° 0 mm 2 m/S 742 mmHg 79%
    21:00 +10°C° 0 mm 3 m/S 742 mmHg 80%
    22:00 +10°C° 0 mm 3 m/S 742 mmHg 81%
    23:00 +10°C° 0 mm 3 m/S 743 mmHg 81%

    28 Mai, Dienstag

    Zeit Temperatur Niederschläge Wind Luftdruck Luftfeuchtigkeit
    00:00 +9°C° 0 mm 3 m/S 743 mmHg 85%
    01:00 +8°C° 0 mm 2 m/S 744 mmHg 89%
    02:00 +7°C° 0 mm 2 m/S 744 mmHg 93%
    03:00 +8°C° 0 mm 2 m/S 745 mmHg 91%
    04:00 +9°C° 0 mm 2 m/S 745 mmHg 89%
    05:00 +9°C° 0 mm 2 m/S 746 mmHg 87%
    06:00 +12°C° 0 mm 2 m/S 746 mmHg 79%
    07:00 +13°C° 0 mm 3 m/S 746 mmHg 72%
    08:00 +16°C° 0 mm 3 m/S 747 mmHg 64%
    09:00 +17°C° 0 mm 3 m/S 747 mmHg 60%
    10:00 +18°C° 0 mm 3 m/S 747 mmHg 56%
    11:00 +19°C° 0 mm 3 m/S 747 mmHg 53%
    12:00 +20°C° 0 mm 3 m/S 746 mmHg 52%
    13:00 +21°C° 0 mm 2 m/S 746 mmHg 51%
    14:00 +23°C° 0 mm 2 m/S 746 mmHg 49%
    15:00 +23°C° 0 mm 2 m/S 746 mmHg 54%
    16:00 +23°C° 0 mm 2 m/S 746 mmHg 58%
    17:00 +23°C° 0 mm 2 m/S 746 mmHg 62%
    18:00 +21°C° 0 mm 2 m/S 746 mmHg 66%
    19:00 +19°C° 0 mm 2 m/S 746 mmHg 69%
    20:00 +18°C° 0 mm 3 m/S 746 mmHg 73%
    21:00 +17°C° 0 mm 3 m/S 745 mmHg 77%
    22:00 +17°C° 0 mm 3 m/S 745 mmHg 80%
    23:00 +17°C° 0 mm 3 m/S 745 mmHg 84%
    Mehr zeigen